UnixTime_GMT,xCO2_ppm,pH-int_1m,pH-ext_1m,pH-int_26m,pH-ext_26m
1482350400000,,,,,
1482351000000,,,,7.95,7.62
1482354000000,,8.12,8.06,7.95,7.62
1482357000000,413.8,8.12,8.06,7.95,7.64
1482360000000,,8.12,8.06,7.99,7.68
1482363000000,,8.12,8.06,7.98,7.69
1482366000000,278.5,8.13,8.06,7.99,7.70
1482369000000,,8.13,8.06,8.00,7.71
1482372000000,,8.12,8.06,8.00,7.72
1482375000000,,8.12,8.06,8.00,7.73
1482378000000,,8.12,8.06,8.01,7.73
1482381000000,,8.13,8.06,7.99,7.72
1482384000000,,8.12,8.06,7.96,7.69
1482387000000,,8.12,8.06,7.97,7.69
1482390000000,,8.12,8.06,7.97,7.69
1482393000000,,8.12,8.06,7.97,7.69
1482396000000,,8.07,8.00,7.97,7.70
1482399000000,,8.08,8.02,7.96,7.69
1482402000000,,8.09,8.02,7.96,7.70
1482405000000,,8.06,7.99,7.96,7.69
1482408000000,,8.08,8.01,7.97,7.70
1482411000000,,8.12,8.05,7.98,7.72
1482414000000,,8.12,8.05,7.99,7.73
1482417000000,,8.11,8.05,7.98,7.71
1482420000000,,8.11,8.05,7.99,7.72
1482423000000,,8.11,8.05,7.99,7.73
1482426000000,,8.11,8.05,7.98,7.72
1482429000000,,8.11,8.05,7.97,7.71
1482432000000,435.1,8.10,8.04,7.96,7.70
1482435000000,,8.10,8.03,7.97,7.71
1482438000000,,8.10,8.03,7.97,7.71
1482441000000,,8.10,8.03,7.97,7.71
1482444000000,,8.10,8.03,7.96,7.71
1482447000000,,8.10,8.03,7.96,7.70
1482450000000,,8.10,8.03,7.96,7.70
1482453000000,,8.09,8.03,7.94,7.68
1482456000000,,8.09,8.02,7.94,7.68
1482459000000,,8.09,8.02,7.94,7.69
1482462000000,,8.10,8.03,7.95,7.69
1482465000000,,8.10,8.03,7.96,7.71
1482468000000,,8.10,8.03,7.98,7.73
1482471000000,,8.08,8.01,7.99,7.74
1482474000000,,8.09,8.02,7.99,7.74
1482477000000,,8.10,8.04,7.99,7.74
1482480000000,,8.10,8.04,7.99,7.74
1482483000000,,8.11,8.04,7.99,7.75
1482486000000,,8.11,8.04,8.00,7.75
1482489000000,,,,8.00,7.76
1482492000000,,8.11,8.04,8.00,7.76
1482495000000,316.1,8.10,8.03,8.01,7.77
1482498000000,,8.09,8.02,8.01,7.77
1482501000000,,8.10,8.03,8.01,7.77
1482504000000,,8.11,8.04,8.01,7.77
1482507000000,,8.11,8.04,8.01,7.77
1482510000000,,8.11,8.04,8.01,7.78
1482513000000,,8.11,8.04,8.01,7.78
1482516000000,,8.11,8.03,8.01,7.78
1482519000000,,8.11,8.04,8.01,7.78
1482522000000,,8.11,8.04,8.01,7.78
1482525000000,,8.11,8.04,8.01,7.78
1482528000000,,8.12,8.05,8.01,7.78
1482531000000,,8.11,8.04,8.01,7.79
1482534000000,,8.12,8.05,8.02,7.79
1482537000000,,8.12,8.05,8.02,7.79
1482540000000,,8.12,8.05,8.02,7.79
1482543000000,,8.12,8.05,8.02,7.80
1482546000000,,8.11,8.04,8.03,7.80
1482549000000,,8.11,8.04,8.03,7.81
1482552000000,,8.10,8.03,8.03,7.81
1482555000000,,8.10,8.03,8.03,7.81
1482558000000,,8.10,8.03,8.03,7.81
1482561000000,452.2,8.10,8.03,8.04,7.81
1482564000000,,8.10,8.03,8.03,7.81
1482567000000,,8.10,8.03,8.03,7.81
1482570000000,,8.10,8.03,8.03,7.81
1482573000000,,8.10,8.03,8.03,7.81
1482576000000,,8.10,8.03,,
1482600000000,,8.10,8.02,,
1482603000000,,8.10,8.03,,
1482606000000,,8.10,8.02,8.04,7.82
1482609000000,,8.10,8.03,8.04,7.81
1482612000000,,8.10,8.03,8.04,7.81
1482615000000,,8.10,8.03,8.04,7.82
1482618000000,,8.10,8.03,8.04,7.82
1482621000000,,8.10,8.03,8.04,7.82
1482624000000,315.2,8.10,8.03,8.04,7.82
1482627000000,,8.10,8.03,8.04,7.82
1482630000000,,8.10,8.03,8.04,7.82
1482633000000,,8.10,8.03,8.04,7.82
1482636000000,,8.10,8.03,8.04,7.82
1482639000000,,8.10,8.03,8.04,7.82
1482642000000,,8.10,8.03,8.04,7.82
1482645000000,,8.10,8.02,8.04,7.82
1482648000000,,8.10,8.02,8.04,7.82
1482654000000,,8.10,8.02,8.04,7.82
1482657000000,,8.10,8.02,8.04,7.82
1482660000000,,8.10,8.03,8.04,7.82
1482663000000,,8.10,8.03,8.04,7.82
1482666000000,312.7,8.10,8.03,8.04,7.82
1482669000000,,8.10,8.03,8.04,7.82
1482672000000,,8.10,8.03,8.04,7.82
1482675000000,,8.10,8.03,8.04,7.82
1482678000000,,8.10,8.03,8.04,7.82
1482681000000,,8.10,8.03,8.04,7.82
1482684000000,,8.09,8.02,8.04,7.81
1482687000000,,8.09,8.02,8.04,7.81
1482690000000,310.9,8.09,8.02,8.04,7.82
1482693000000,,8.10,8.02,8.05,7.82
1482696000000,,8.09,8.02,8.04,7.81
1482699000000,,8.09,8.02,8.04,7.82
1482702000000,,8.09,8.02,8.04,7.82
1482705000000,,8.09,8.02,8.04,7.81
1482708000000,,8.09,8.02,8.04,7.82
1482711000000,,8.10,8.02,8.04,7.82
1482714000000,,8.10,8.02,8.04,7.81
1482717000000,,8.10,8.03,8.04,7.82
1482720000000,,8.10,8.03,8.04,7.82
1482726000000,,8.10,8.03,8.04,7.82
1482729000000,,8.10,8.02,8.04,7.82
1482732000000,,8.10,8.03,8.04,7.82
1482735000000,,8.10,8.02,8.04,7.81
1482738000000,,8.10,8.02,8.04,7.81
1482741000000,,8.10,8.03,8.04,7.82
1482744000000,,8.10,8.02,8.04,7.81
1482747000000,,8.10,8.02,8.04,7.81
1482750000000,,8.10,8.02,8.04,7.81
1482753000000,,8.10,8.02,8.04,7.81
1482756000000,462.1,8.10,8.02,8.04,7.81
1482759000000,,8.10,8.02,8.04,7.81
1482762000000,,8.10,8.02,8.04,7.81
1482765000000,,8.10,8.03,8.04,7.81
1482768000000,,8.10,8.03,8.04,7.81
1482771000000,,8.09,8.02,8.04,7.81
1482774000000,,8.09,8.02,8.03,7.81
1482777000000,,8.09,8.02,8.04,7.81
1482780000000,,8.09,8.02,8.03,7.81
1482783000000,,8.09,8.02,8.03,7.81
1482786000000,,8.09,8.02,8.03,7.80
1482789000000,,8.09,8.01,8.03,7.80
1482792000000,,8.09,8.02,8.03,7.81
1482795000000,,8.09,8.02,8.03,7.81
1482798000000,,8.10,8.02,8.03,7.81
1482801000000,,8.10,8.02,8.04,7.81
1482804000000,,8.10,8.02,8.03,7.81
1482807000000,,8.10,8.03,8.03,7.81
1482810000000,,8.11,8.03,8.03,7.81
1482813000000,,8.10,8.03,8.04,7.81
1482816000000,,8.10,8.03,8.04,7.82
1482819000000,321.1,8.11,8.03,8.05,7.83
1482822000000,,8.12,8.04,8.05,7.82
1482825000000,,8.12,8.04,8.05,7.82
1482828000000,,8.12,8.05,8.05,7.83
1482843000000,,,,8.04,7.82
1482858000000,,8.11,8.03,8.05,7.82
1482861000000,,8.11,8.03,8.04,7.82
1482864000000,,8.10,8.03,8.03,7.81
1482867000000,,8.10,8.03,8.04,7.82
1482870000000,,8.11,8.04,8.03,7.81
1482873000000,,8.11,8.04,8.03,7.80
1482876000000,,8.11,8.04,8.03,7.80
1482879000000,,8.11,8.04,8.03,7.80
1482882000000,,8.10,8.02,8.01,7.79
1482885000000,404.2,8.09,8.02,8.03,7.81
1482888000000,,8.08,8.01,8.01,7.79
1482891000000,,8.08,8.01,8.01,7.79
1482894000000,,8.08,8.01,7.99,7.77
1482897000000,,8.08,8.01,8.00,7.78
1482900000000,,8.09,8.02,8.00,7.77
1482903000000,,8.08,8.01,8.03,7.81
1482906000000,,8.08,8.01,8.01,7.79
1482909000000,,8.09,8.01,7.97,7.75
1482912000000,,8.08,8.01,8.00,7.77
1482915000000,,8.08,8.01,8.02,7.79
1482918000000,,8.08,8.01,8.02,7.79
1482921000000,,8.08,8.01,8.00,7.78
1482924000000,,8.09,8.01,8.00,7.78
1482927000000,,8.09,8.02,8.00,7.77
1482930000000,,8.10,8.02,7.98,7.75
1482933000000,,8.10,8.03,7.98,7.76
1482939000000,,8.10,8.03,8.00,7.77
1482942000000,,8.09,8.02,7.99,7.76
1482945000000,,8.08,8.01,7.99,7.76
1482948000000,425.3,8.08,8.00,7.99,7.76
1482951000000,,8.08,8.00,7.97,7.74
1482954000000,,8.07,8.00,8.01,7.78
1482957000000,,8.08,8.01,8.00,7.77
1482960000000,,8.08,8.01,7.98,7.76
1482963000000,,8.08,8.01,7.99,7.76
1482966000000,,8.09,8.02,7.99,7.76
1482969000000,,8.10,8.02,8.00,7.77
1482972000000,,8.08,8.01,8.02,7.80
1482975000000,,,,8.03,7.81
1482978000000,,8.10,8.03,8.04,7.82
1482981000000,,8.10,8.03,7.99,7.77
1482984000000,,8.10,8.03,7.95,7.72
1482987000000,,8.10,8.03,7.96,7.73
1482990000000,,8.10,8.03,7.95,7.71
1482996000000,,8.09,8.02,7.98,7.74
1482999000000,,8.06,7.99,7.99,7.75
1483002000000,,8.08,8.00,8.00,7.77
1483005000000,,,,8.00,7.77
1483008000000,,8.08,8.01,7.99,7.77
1483017000000,,8.09,8.02,8.03,7.81
1483020000000,,8.09,8.02,8.04,7.82
1483023000000,,8.10,8.02,8.03,7.81
1483026000000,,8.10,8.03,8.02,7.80
1483029000000,,8.10,8.03,8.03,7.81
1483032000000,,8.09,8.02,8.02,7.80
1483035000000,,8.10,8.03,7.99,7.77
1483038000000,,8.07,8.00,7.98,7.76
1483041000000,,8.10,8.03,7.95,7.72
1483044000000,,8.08,8.01,7.95,7.72
1483047000000,,,,7.96,7.73
1483050000000,,8.07,8.00,7.95,7.72
1483053000000,,8.07,8.00,7.98,7.75
1483056000000,,8.08,8.00,7.98,7.75
1483059000000,,8.08,8.01,8.00,7.78
1483062000000,,8.10,8.03,8.02,7.80
1483065000000,,8.10,8.02,8.04,7.82
1483068000000,,8.11,8.04,8.00,7.78
1483071000000,,8.11,8.04,8.03,7.81
1483074000000,,8.10,8.03,8.03,7.81
1483077000000,329.8,8.10,8.02,,
1483080000000,,8.10,8.03,8.00,7.78
1483083000000,,8.10,8.02,7.96,7.74
1483086000000,,8.09,8.02,7.96,7.73
1483089000000,,8.08,8.01,7.96,7.73
1483092000000,,8.08,8.01,7.97,7.74
1483095000000,,8.11,8.04,7.99,7.76
1483098000000,,8.11,8.04,7.98,7.75
1483116000000,,8.11,8.04,7.98,7.76
1483119000000,,,,7.98,7.76
1483122000000,,8.09,8.03,7.98,7.76
1483125000000,,8.09,8.02,,
1483128000000,,8.05,7.98,7.94,7.72
1483131000000,,8.04,7.97,7.95,7.73
1483134000000,,8.04,7.97,7.95,7.72
1483137000000,,8.03,7.96,7.96,7.73
1483140000000,,8.05,7.98,7.98,7.75
1483143000000,357.5,8.06,7.99,7.97,7.75
1483146000000,,8.08,8.01,7.98,7.76
1483149000000,,8.08,8.01,8.02,7.79
1483152000000,,8.09,8.02,7.95,7.73
1483155000000,,8.09,8.02,7.95,7.73
1483158000000,,8.11,8.04,7.97,7.74
1483161000000,,8.11,8.04,7.95,7.73
1483164000000,,8.12,8.04,7.97,7.75
1483167000000,,8.11,8.04,7.97,7.74
1483170000000,,8.12,8.05,7.97,7.74
1483173000000,,8.12,8.05,7.98,7.76
1483176000000,,8.12,8.06,7.98,7.76
1483179000000,,8.12,8.06,7.99,7.76
1483182000000,,8.12,8.06,7.97,7.74
1483185000000,,8.12,8.06,7.98,7.76
1483188000000,,8.12,8.06,7.97,7.75
1483191000000,,8.12,8.05,7.98,7.76
1483194000000,,8.12,8.05,7.99,7.77
1483197000000,,8.12,8.06,7.98,7.76
1483200000000,,,,7.98,7.76
1483203000000,,8.12,8.06,8.02,7.80
1483206000000,,8.12,8.06,8.03,7.81
1483209000000,401.1,8.10,8.03,8.01,7.79
1483212000000,,8.11,8.04,7.98,7.76
1483215000000,,8.09,8.02,7.97,7.75
1483218000000,,,,7.97,7.75
1483221000000,,8.06,7.99,7.99,7.77
1483224000000,,8.11,8.04,8.03,7.81
1483227000000,,8.13,8.06,7.97,7.76
1483230000000,,8.13,8.06,7.97,7.75
1483233000000,,8.13,8.06,7.98,7.77
1483236000000,,,,7.97,7.75
1483239000000,,8.13,8.06,7.97,7.75
1483242000000,,8.13,8.06,7.97,7.75
1483245000000,,8.12,8.06,,
1483248000000,,8.12,8.06,7.97,7.75
1483251000000,,8.12,8.05,7.98,7.76
1483254000000,,8.10,8.03,8.00,7.78
1483257000000,,8.09,8.02,7.98,7.77
1483260000000,,8.09,8.02,8.02,7.80
1483263000000,,8.10,8.03,,
1483266000000,,8.09,8.02,8.01,7.80
1483269000000,,8.09,8.02,8.01,7.80
1483272000000,,8.09,8.02,7.99,7.77
1483275000000,352.7,8.09,8.02,7.99,7.77
1483278000000,,8.09,8.02,8.00,7.78
1483281000000,,8.10,8.03,7.98,7.76
1483284000000,,8.10,8.03,7.98,7.76
1483287000000,,8.10,8.03,7.98,7.76
1483290000000,,8.11,8.04,7.98,7.76
1483293000000,,8.11,8.04,7.98,7.77
1483296000000,,8.11,8.04,7.99,7.77
1483299000000,,,,7.99,7.77
1483302000000,,8.12,8.05,7.99,7.77
1483305000000,,8.11,8.05,7.98,7.76
1483308000000,,8.11,8.05,7.98,7.76
1483311000000,,8.07,8.00,7.98,7.76
1483314000000,,8.06,7.99,7.98,7.76
1483317000000,,,,7.98,7.76
1483320000000,,8.08,8.01,7.98,7.76
1483323000000,,8.09,8.02,7.99,7.77
1483326000000,,8.10,8.02,7.99,7.77
1483329000000,,8.12,8.05,7.99,7.77
1483332000000,,8.12,8.05,7.98,7.77
1483335000000,,,,7.98,7.76
1483338000000,332.7,8.12,8.05,7.98,7.77
1483341000000,,8.12,8.05,7.99,7.77
1483344000000,,8.12,8.05,7.99,7.77
1483347000000,,8.12,8.05,7.99,7.77
1483350000000,,8.11,8.04,8.02,7.80
1483353000000,,8.10,8.03,7.99,7.77
1483356000000,,8.11,8.04,7.98,7.77
1483359000000,,8.10,8.03,7.99,7.77
1483362000000,,8.10,8.03,7.99,7.77
1483365000000,,8.10,8.03,7.99,7.77
1483368000000,,8.10,8.03,7.98,7.77
1483371000000,,,,7.98,7.77
1483374000000,,8.11,8.04,7.98,7.77
1483377000000,,8.10,8.03,7.98,7.77
1483380000000,,8.10,8.04,7.98,7.77
1483383000000,,8.11,8.04,7.98,7.77
1483386000000,,8.10,8.03,7.98,7.77
1483389000000,,,,7.98,7.76
1483392000000,,8.09,8.02,7.98,7.76
1483395000000,,8.08,8.01,7.98,7.76
1483398000000,,8.08,8.01,7.98,7.77
1483401000000,,8.08,8.01,7.99,7.77
1483404000000,435.5,8.09,8.02,7.98,7.77
1483407000000,,8.08,8.01,7.98,7.77
1483410000000,,8.10,8.03,7.99,7.77
1483413000000,,8.11,8.04,7.99,7.77
1483416000000,,8.11,8.04,8.00,7.78
1483419000000,,8.11,8.04,8.00,7.79
1483422000000,,8.11,8.04,8.03,7.81
1483425000000,,8.11,8.04,,
1483428000000,,,,8.02,7.81
1483431000000,,8.12,8.05,7.98,7.77
1483434000000,,8.10,8.03,8.00,7.78
1483437000000,,8.13,8.06,8.04,7.82
1483440000000,,8.11,8.04,8.04,7.83
1483443000000,,8.12,8.05,7.98,7.77
1483446000000,,8.11,8.04,7.98,7.77
1483449000000,,8.11,8.05,7.98,7.77
1483452000000,,8.12,8.05,7.98,7.77
1483455000000,,8.12,8.05,7.99,7.77
1483458000000,,8.12,8.05,7.98,7.77
1483461000000,,8.12,8.05,7.99,7.77
1483464000000,,8.12,8.05,8.00,7.78
1483467000000,318.6,8.11,8.05,8.03,7.82
1483470000000,,8.11,8.05,8.02,7.81
1483473000000,,8.11,8.04,8.00,7.79
1483476000000,,8.11,8.04,8.00,7.79
1483479000000,,8.10,8.04,7.97,7.76
1483482000000,,8.10,8.04,7.99,7.78
1483485000000,,8.07,8.01,8.00,7.78
1483488000000,,8.06,8.00,8.01,7.79
1483491000000,,8.07,8.00,8.00,7.79
1483494000000,,8.07,8.00,7.99,7.78
1483497000000,,8.08,8.01,7.99,7.78
1483500000000,,8.08,8.01,7.98,7.77
1483503000000,,8.09,8.03,8.01,7.80
1483506000000,,8.10,8.04,8.00,7.78
1483509000000,,8.10,8.04,,
1483512000000,,,,8.00,7.79
1483515000000,,8.10,8.04,8.00,7.79
1483518000000,,8.11,8.04,7.98,7.77
1483521000000,,8.11,8.05,8.00,7.79
1483524000000,,8.11,8.05,,
1483527000000,,8.11,8.04,7.97,7.76
1483548000000,,8.11,8.05,8.00,7.78
1483551000000,,8.11,8.05,7.99,7.78
1483554000000,,8.11,8.05,7.99,7.78
1483557000000,,,,7.99,7.78
1483560000000,,8.12,8.05,8.00,7.78
1483563000000,,8.13,8.07,8.00,7.79
1483566000000,,8.12,8.06,8.01,7.79
1483569000000,,8.11,8.04,8.01,7.80
1483572000000,,8.12,8.05,8.03,7.82
1483575000000,,8.09,8.03,7.97,7.77
1483578000000,,,,8.02,7.81
1483587000000,,,,7.99,7.78
1483590000000,,,,7.99,7.78
1483593000000,,,,8.00,7.78
1483596000000,414.8,8.10,8.04,7.99,7.78
1483599000000,,8.10,8.04,8.01,7.80
1483602000000,,8.10,8.04,8.04,7.83
1483605000000,,8.10,8.03,8.04,7.83
1483608000000,,8.13,8.06,8.03,7.83
1483611000000,,8.14,8.07,8.00,7.79
1483614000000,,8.13,8.06,7.98,7.77
1483617000000,,8.13,8.07,,
1483620000000,,8.13,8.07,7.98,7.76
1483623000000,,8.13,8.07,7.98,7.76
1483626000000,,8.13,8.07,7.98,7.77
1483629000000,,8.09,8.03,7.99,7.78
1483632000000,,8.11,8.05,7.98,7.77
1483635000000,,8.12,8.06,7.98,7.76
1483638000000,,8.11,8.05,7.99,7.78
1483641000000,,8.13,8.06,7.98,7.76
1483644000000,,8.13,8.07,7.98,7.77
1483647000000,,8.13,8.07,7.99,7.77
1483650000000,,8.13,8.07,8.01,7.79
1483653000000,,8.13,8.07,8.01,7.80
1483656000000,,8.14,8.08,8.00,7.79
1483659000000,,8.14,8.08,8.03,7.82
1483662000000,451.4,8.11,8.05,8.03,7.82
1483665000000,,8.10,8.04,8.05,7.84
1483668000000,,8.11,8.05,8.05,7.84
1483671000000,,8.11,8.05,8.00,7.79
1483674000000,,8.11,8.04,8.02,7.81
1483677000000,,8.11,8.04,8.05,7.84
1483680000000,,8.11,8.05,7.99,7.78
1483683000000,,8.11,8.05,7.99,7.78
1483686000000,,8.10,8.04,8.01,7.80
1483689000000,,8.11,8.05,8.02,7.81
1483692000000,,8.11,8.05,8.00,7.79
1483695000000,,8.11,8.05,7.99,7.78
1483698000000,,8.11,8.05,7.98,7.77
1483701000000,,8.11,8.05,7.99,7.77
1483704000000,,8.11,8.05,7.98,7.77
1483707000000,,8.10,8.04,7.98,7.76
1483710000000,,8.11,8.05,7.98,7.77
1483713000000,,,,8.01,7.80
1483716000000,,8.10,8.04,8.01,7.80
1483719000000,,8.09,8.03,7.99,7.79
1483722000000,,8.09,8.03,7.98,7.77
1483725000000,,8.09,8.03,7.98,7.77
1483728000000,330.4,,,7.98,7.76
1483731000000,,8.08,8.02,,
1483734000000,,8.09,8.03,7.97,7.76
1483737000000,,8.10,8.04,7.98,7.76
1483740000000,,8.11,8.05,7.98,7.77
1483743000000,,8.13,8.07,8.00,7.79
1483746000000,,8.11,8.05,7.99,7.78
1483749000000,,8.10,8.04,7.99,7.78
1483752000000,,8.10,8.04,7.99,7.78
1483755000000,,8.10,8.03,7.97,7.76
1483758000000,,8.08,8.02,7.98,7.77
1483761000000,,8.10,8.04,7.97,7.76
1483764000000,,8.14,8.08,7.97,7.76
1483767000000,,8.11,8.04,7.97,7.75
1483770000000,,8.11,8.05,7.97,7.75
1483773000000,,8.12,8.06,7.97,7.75
1483776000000,,8.08,8.02,7.96,7.74
1483779000000,,8.09,8.03,7.96,7.74
1483782000000,,8.12,8.06,7.97,7.75
1483785000000,,8.12,8.06,7.96,7.74
1483788000000,,8.11,8.05,7.97,7.75
1483791000000,431.7,8.13,8.07,7.95,7.74
1483794000000,,8.12,8.06,7.95,7.74
1483797000000,,8.12,8.06,7.95,7.73
1483800000000,,8.10,8.03,7.97,7.75
1483803000000,,8.11,8.05,7.97,7.75
1483806000000,,8.10,8.03,7.96,7.74
1483809000000,,8.11,8.05,7.95,7.74
1483812000000,,8.11,8.05,7.96,7.74
1483815000000,,8.12,8.06,7.96,7.74
1483818000000,,8.14,8.08,7.95,7.73
1483821000000,,8.14,8.09,7.94,7.73
1483824000000,,8.14,8.09,7.95,7.73
1483827000000,,8.15,8.09,7.94,7.72
1483830000000,,8.15,8.09,7.94,7.72
1483833000000,,8.15,8.10,7.94,7.72
1483836000000,,8.15,8.10,7.94,7.72
1483839000000,,8.14,8.08,7.96,7.74
1483842000000,,8.14,8.08,7.95,7.73
1483845000000,,8.14,8.09,7.95,7.73
1483848000000,,8.15,8.09,7.94,7.72
1483851000000,,8.15,8.09,7.93,7.71
1483854000000,,8.15,8.10,7.94,7.72
1483857000000,286.8,8.16,8.10,7.94,7.71
1483860000000,,8.16,8.10,7.94,7.72
1483863000000,,8.16,8.10,7.95,7.73
1483866000000,,8.13,8.07,7.96,7.74
1483869000000,,8.09,8.03,7.95,7.73
1483872000000,,8.12,8.06,7.92,7.70
1483875000000,,8.15,8.09,7.96,7.74
1483878000000,,8.14,8.07,7.93,7.71
1483881000000,,8.14,8.07,7.94,7.72
1483884000000,,8.15,8.08,7.93,7.71
1483887000000,,8.14,8.07,7.94,7.72
1483890000000,,8.14,8.08,7.94,7.72
1483893000000,,8.15,8.09,7.97,7.75
1483896000000,,8.15,8.09,7.95,7.73
1483899000000,,8.15,8.09,7.99,7.77
1483902000000,,8.15,8.09,8.00,7.78
1483905000000,,8.16,8.10,7.95,7.73
1483908000000,,8.14,8.09,7.94,7.72
1483911000000,,8.15,8.09,7.94,7.72
1483914000000,,8.16,8.11,7.95,7.73
1483917000000,,8.16,8.11,7.94,7.72
1483920000000,216.8,8.15,8.09,7.94,7.72
1483923000000,,8.13,8.08,7.95,7.73
1483926000000,,8.13,8.08,7.96,7.74
1483929000000,,8.13,8.07,7.95,7.73
1483932000000,,8.13,8.08,7.95,7.74
1483935000000,,8.14,8.08,7.96,7.74
1483938000000,,8.14,8.08,7.97,7.75
1483941000000,,8.13,8.07,7.97,7.76
1483944000000,,8.14,8.07,7.95,7.73
1483947000000,,8.09,8.03,7.95,7.73
1483950000000,,8.06,8.00,7.94,7.72
1483953000000,,8.06,8.00,7.94,7.72
1483956000000,,8.12,8.06,7.94,7.72
1483959000000,,8.15,8.09,7.95,7.73
1483962000000,,8.17,8.11,7.95,7.73
1483965000000,,8.18,8.12,7.98,7.76
1483968000000,,8.18,8.12,7.99,7.77
1483971000000,,8.18,8.12,7.98,7.77
1483974000000,,8.18,8.12,7.99,7.77
1483977000000,,8.18,8.12,7.99,7.77
1483980000000,,8.18,8.12,8.00,7.78
1483983000000,,8.18,8.12,7.97,7.76
1483986000000,382.6,8.18,8.12,7.96,7.74
1483989000000,,8.18,8.12,7.96,7.75
1483992000000,,8.18,8.12,7.96,7.75
1483995000000,,8.16,8.11,7.94,7.73
1483998000000,,8.15,8.09,7.97,7.75
1484001000000,,,,7.95,7.73
1484004000000,,8.16,8.10,7.94,7.73
1484007000000,,8.15,8.10,7.97,7.75
1484010000000,,8.15,8.09,7.97,7.76
1484013000000,,8.14,8.09,7.96,7.74
1484016000000,,8.15,8.09,7.96,7.74
1484019000000,,8.15,8.09,7.95,7.73
1484022000000,,8.15,8.09,7.96,7.74
1484025000000,,8.16,8.10,7.97,7.75
1484028000000,,8.15,8.09,7.95,7.74
1484031000000,,8.14,8.09,7.96,7.75
1484034000000,,8.15,8.09,7.97,7.75
1484037000000,,8.15,8.09,7.94,7.73
1484040000000,,8.14,8.08,7.97,7.75
1484043000000,,8.12,8.06,7.94,7.72
1484046000000,,8.09,8.03,7.94,7.72
1484049000000,,8.17,8.11,7.95,7.73
1484052000000,385.8,8.17,8.11,7.96,7.74
1484055000000,,8.17,8.11,7.96,7.74
1484058000000,,8.17,8.11,7.97,7.75
1484061000000,,8.17,8.11,7.98,7.77
1484064000000,,8.18,8.11,7.98,7.77
1484067000000,,8.18,8.12,7.98,7.77
1484070000000,,8.18,8.12,7.96,7.75
1484073000000,,8.16,8.11,7.95,7.74
1484076000000,,8.17,8.11,7.96,7.74
1484079000000,,8.16,8.11,7.96,7.74
1484082000000,,8.16,8.10,7.96,7.74
1484085000000,,8.17,8.12,7.95,7.74
1484088000000,,8.17,8.12,7.95,7.73
1484091000000,,8.16,8.10,7.95,7.73
1484094000000,,8.15,8.09,7.95,7.73
1484097000000,,8.15,8.09,7.95,7.73
1484100000000,,8.14,8.08,7.95,7.73
1484103000000,,8.13,8.08,7.95,7.73
1484106000000,,8.13,8.07,7.95,7.73
1484109000000,,8.13,8.07,7.98,7.76
1484112000000,,8.13,8.07,7.98,7.76
1484115000000,420.9,8.14,8.07,7.97,7.76
1484118000000,,8.13,8.07,7.97,7.75
1484121000000,,8.13,8.07,7.95,7.73
1484124000000,,8.13,8.07,7.95,7.73
1484127000000,,8.13,8.07,7.95,7.73
1484130000000,,8.13,8.07,7.95,7.73
1484133000000,,8.13,8.07,7.95,7.73
1484136000000,,8.13,8.07,7.95,7.73
1484139000000,,8.13,8.07,7.97,7.75
1484142000000,,8.14,8.07,7.97,7.76
1484145000000,,8.14,8.08,7.98,7.76
1484148000000,,8.14,8.08,7.98,7.76
1484151000000,,8.14,8.08,7.97,7.76
1484154000000,,8.14,8.08,7.98,7.76
1484157000000,,8.14,8.07,7.99,7.78
1484160000000,,8.13,8.07,8.00,7.79
1484163000000,,8.13,8.07,7.99,7.77
1484166000000,,8.13,8.07,7.99,7.78
1484169000000,,8.13,8.07,7.99,7.77
1484172000000,,8.12,8.06,7.98,7.76
1484175000000,,8.12,8.06,7.98,7.77
1484178000000,,8.13,8.07,7.99,7.78
1484181000000,293.5,8.13,8.07,7.98,7.76
1484184000000,,8.13,8.07,7.98,7.76
1484187000000,,8.13,8.07,7.99,7.77
1484190000000,,8.13,8.07,7.98,7.77
1484193000000,,8.13,8.07,7.99,7.77
1484196000000,,8.13,8.07,7.99,7.78
1484199000000,,8.13,8.07,,
1484202000000,,8.14,8.08,7.99,7.78
1484205000000,,8.14,8.08,7.97,7.76
1484208000000,,8.14,8.08,7.97,7.75
1484211000000,,8.13,8.08,7.96,7.75
1484214000000,,8.10,8.04,7.96,7.75
1484217000000,,8.10,8.04,7.97,7.76
1484220000000,,8.12,8.06,7.98,7.77
1484223000000,,8.12,8.07,7.98,7.77
1484226000000,,8.12,8.06,7.99,7.77
1484229000000,,8.12,8.06,7.99,7.78
1484232000000,,8.12,8.06,7.99,7.77
1484235000000,,8.12,8.06,7.99,7.77
1484238000000,,8.13,8.07,7.99,7.77
1484241000000,,8.13,8.07,7.99,7.77
1484244000000,,8.13,8.07,7.99,7.77
1484247000000,425.2,8.13,8.07,7.99,7.77
1484250000000,,8.10,8.04,7.98,7.77
1484253000000,,8.10,8.04,7.98,7.77
1484256000000,,8.11,8.05,7.98,7.77
1484259000000,,8.10,8.04,7.99,7.77
1484262000000,,8.11,8.05,7.99,7.78
1484265000000,,8.13,8.07,7.99,7.77
1484268000000,,8.12,8.07,7.98,7.77
1484271000000,,8.13,8.07,7.98,7.77
1484274000000,,8.12,8.06,7.99,7.77
1484277000000,,8.11,8.06,7.99,7.78
1484280000000,,8.12,8.06,8.00,7.79
1484283000000,,8.10,8.04,8.01,7.80
1484286000000,,8.09,8.03,7.98,7.77
1484289000000,,8.10,8.04,7.96,7.75
1484292000000,,8.08,8.02,7.94,7.73
1484295000000,,8.10,8.04,7.93,7.71
1484298000000,,8.05,7.99,7.93,7.72
1484301000000,,8.05,7.99,7.94,7.72
1484304000000,,8.06,8.00,7.94,7.72
1484307000000,,8.06,8.00,7.94,7.72
1484310000000,496.9,8.07,8.01,7.94,7.72
1484313000000,,8.05,7.99,7.94,7.73
1484316000000,,8.04,7.98,7.94,7.73
1484319000000,,8.05,7.99,7.94,7.73
1484322000000,,8.06,7.99,7.95,7.73
1484325000000,,8.03,7.96,7.94,7.73
1484328000000,,8.04,7.98,7.95,7.73
1484331000000,,8.06,7.99,7.95,7.73
1484334000000,,8.08,8.02,7.95,7.73
1484337000000,,8.07,8.01,7.94,7.72
1484340000000,,8.12,8.06,7.94,7.72
1484343000000,,8.13,8.07,7.97,7.75
1484346000000,,8.13,8.07,7.98,7.76
1484349000000,,8.13,8.08,7.98,7.77
1484352000000,,8.13,8.08,7.98,7.77
1484355000000,,8.13,8.08,7.98,7.77
1484358000000,,8.13,8.07,7.98,7.76
1484361000000,,8.13,8.07,7.98,7.76
1484364000000,,8.09,8.03,7.97,7.76
1484367000000,,8.09,8.03,7.98,7.76
1484370000000,,8.06,8.00,7.98,7.76
1484373000000,,8.08,8.02,7.98,7.77
1484376000000,489.9,8.07,8.01,7.98,7.77
1484379000000,,8.13,8.06,7.99,7.77
1484382000000,,8.13,8.05,7.98,7.77
1484385000000,,8.14,8.07,7.98,7.77
1484388000000,,8.14,8.08,7.98,7.77
1484391000000,,8.12,8.06,7.97,7.76
1484394000000,,8.10,8.04,7.97,7.76
1484397000000,,8.12,8.06,7.98,7.76
1484400000000,,8.12,8.06,7.98,7.76
1484403000000,,8.13,8.07,7.98,7.77
1484406000000,,8.13,8.07,7.98,7.77
1484409000000,,8.13,8.07,7.98,7.76
1484412000000,,8.13,8.07,7.99,7.77
1484415000000,,8.13,8.07,8.01,7.80
1484418000000,,8.13,8.07,8.02,7.81
1484421000000,,8.13,8.07,8.00,7.79
1484424000000,,8.13,8.07,7.99,7.78
1484427000000,,8.12,8.07,7.98,7.78
1484430000000,,8.13,8.07,7.99,7.78
1484433000000,,8.13,8.08,7.98,7.77
1484436000000,,8.13,8.08,7.97,7.76
1484439000000,416.1,8.14,8.09,7.97,7.76
1484442000000,,8.14,8.09,7.97,7.76
1484445000000,,8.14,8.08,7.96,7.75
1484448000000,,8.14,8.09,7.96,7.75
1484451000000,,8.13,8.08,7.96,7.75
1484454000000,,8.13,8.08,7.96,7.75